| time (UTC) | temp F | wind direction | speed MPH | gust MPH | rain 1hr in | rain 24hr in | rain mn in | humidity % | barometer mb |
| 20260502231553 | 50 | 248 | 0.0 | 0.0 | 0.00 | 9.99 | 0.00 | 71 | 1009.3 |
| 20260502230552 | 50 | 248 | 0.0 | 0.0 | 0.00 | 9.99 | 0.00 | 70 | 1009.4 |
| 20260502230053 | 50 | 248 | 0.0 | 0.0 | 0.00 | 9.99 | 0.00 | 70 | 1009.3 |
| 20260502225552 | 50 | 248 | 0.0 | 0.0 | 0.00 | 9.99 | 0.00 | 70 | 1009.4 |
| 20260502225053 | 51 | 248 | 0.0 | 0.0 | 0.00 | 9.99 | 0.00 | 70 | 1009.5 |
| 20260502224053 | 51 | 248 | 0.0 | 0.0 | 0.00 | 9.99 | 0.00 | 70 | 1009.4 |
| 20260502222553 | 51 | 248 | 0.0 | 0.0 | 0.00 | 9.99 | 0.00 | 69 | 1009.5 |
| 20260502222053 | 51 | 248 | 0.0 | 0.0 | 0.00 | 9.99 | 0.00 | 69 | 1009.4 |
| 20260502221553 | 51 | 248 | 0.0 | 0.0 | 0.00 | 9.99 | 0.00 | 69 | 1009.6 |
| 20260502221053 | 52 | 248 | 0.0 | 0.0 | 0.00 | 9.99 | 0.00 | 69 | 1009.5 |
| 20260502220553 | 52 | 248 | 0.0 | 0.0 | 0.02 | 9.99 | 0.00 | 68 | 1009.5 |
| 20260502220053 | 52 | 248 | 0.0 | 0.0 | 0.06 | 9.99 | 0.00 | 67 | 1009.2 |
| 20260502215554 | 52 | 248 | 0.0 | 0.0 | 0.10 | 9.99 | 0.00 | 67 | 1009.4 |
| 20260502215053 | 52 | 248 | 0.0 | 0.0 | 0.10 | 9.99 | 0.00 | 67 | 1009.5 |
| 20260502214552 | 52 | 248 | 0.0 | 0.0 | 0.10 | 9.99 | 0.00 | 67 | 1009.4 |
| 20260502213625 | 53 | 248 | 0.0 | 0.0 | 0.26 | 9.99 | 0.00 | 66 | 1009.2 |
| 20260502213553 | 53 | 248 | 0.0 | 0.0 | 0.26 | 9.99 | 0.00 | 66 | 1009.2 |
| 20260502213053 | 53 | 248 | 0.0 | 0.0 | 0.26 | 9.99 | 0.00 | 65 | 1009.4 |
| 20260502212052 | 53 | 248 | 0.0 | 0.0 | 0.26 | 9.99 | 0.00 | 65 | 1009.2 |
| 20260502211553 | 53 | 248 | 0.0 | 0.0 | 0.26 | 9.99 | 0.00 | 65 | 1009.2 |
| 20260502211056 | 54 | 248 | 44.0 | 44.0 | 0.24 | 9.99 | 0.00 | 65 | 1009.3 |
| 20260502210553 | 54 | 248 | 44.0 | 44.0 | 0.24 | 9.99 | 0.00 | 65 | 1009.2 |
| 20260502205555 | 54 | 248 | 0.0 | 0.0 | 0.22 | 9.99 | 0.00 | 64 | 1009.1 |
| 20260502205053 | 54 | 248 | 0.0 | 0.0 | 0.22 | 9.99 | 0.00 | 63 | 1009.2 |
| 20260502204552 | 54 | 359 | 0.0 | 0.0 | 0.22 | 9.99 | 0.00 | 63 | 1009.3 |
| 20260502204052 | 55 | 359 | 0.0 | 0.0 | 0.22 | 9.99 | 0.00 | 63 | 1009.1 |
| 20260502203552 | 55 | 248 | 44.0 | 44.0 | 5.26 | 9.99 | 0.00 | 62 | 1009.0 |
| 20260502203052 | 56 | 248 | 43.0 | 43.0 | 9.99 | 9.99 | 0.00 | 61 | 1009.1 |
| 20260502202554 | 56 | 248 | 43.0 | 43.0 | 9.99 | 9.99 | 0.00 | 61 | 1009.1 |
| 20260502201553 | 56 | 248 | 0.0 | 0.0 | 9.99 | 9.99 | 0.00 | 61 | 1009.1 |
| 20260502200554 | 56 | 359 | 0.0 | 0.0 | 9.99 | 9.99 | 0.00 | 61 | 1009.0 |
| 20260502200053 | 212 | 359 | 0.0 | 0.0 | 9.99 | 9.99 | 0.00 | 100 | 1009.0 |
| 20260502195053 | 57 | 248 | 0.0 | 0.0 | 9.99 | 9.99 | 0.00 | 59 | 1008.9 |
| 20260502194556 | 57 | 248 | 0.0 | 0.0 | 9.99 | 9.99 | 0.00 | 59 | 1008.9 |
| 20260502194054 | 57 | 248 | 0.0 | 0.0 | 9.99 | 9.99 | 0.00 | 59 | 1009.0 |
| 20260502193553 | 57 | 248 | 0.0 | 0.0 | 9.99 | 9.99 | 0.00 | 59 | 1008.7 |
| 20260502193053 | 58 | 359 | 0.0 | 0.0 | 9.99 | 9.99 | 0.00 | 58 | 1008.8 |
| 20260502192555 | 58 | 359 | 0.0 | 0.0 | 5.20 | 9.99 | 0.00 | 57 | 1007.1 |
| 20260502192052 | 58 | 359 | 0.0 | 0.0 | 0.12 | 9.99 | 0.00 | 57 | 1008.9 |
| 20260502191554 | 59 | 248 | 0.0 | 0.0 | 0.12 | 9.99 | 0.00 | 56 | 1007.0 |
| 20260502191055 | 59 | 248 | 0.0 | 0.0 | 0.12 | 9.99 | 0.00 | 56 | 1008.6 |
| 20260502190552 | 59 | 248 | 0.0 | 0.0 | 0.12 | 9.99 | 0.00 | 56 | 1008.5 |
| 20260502190052 | 59 | 248 | 0.0 | 0.0 | 0.12 | 9.99 | 0.00 | 55 | 1008.5 |
| 20260502185552 | 59 | 248 | 0.0 | 0.0 | 0.12 | 9.99 | 0.00 | 55 | 1008.4 |
| 20260502185054 | 60 | 248 | 0.0 | 0.0 | 0.12 | 9.99 | 0.00 | 55 | 1008.4 |
| 20260502184553 | 60 | 248 | 0.0 | 0.0 | 0.12 | 9.99 | 0.00 | 55 | 1008.4 |
| 20260502184052 | 60 | 248 | 0.0 | 0.0 | 0.12 | 9.99 | 0.00 | 54 | 1008.4 |
| 20260502183053 | 61 | 248 | 0.0 | 0.0 | 0.12 | 9.99 | 0.00 | 53 | 1008.1 |
| 20260502182553 | 62 | 248 | 0.0 | 0.0 | 0.00 | 9.99 | 0.00 | 51 | 1008.2 |
| 20260502182054 | 62 | 248 | 38.0 | 38.0 | 0.00 | 9.99 | 0.00 | 51 | 1008.1 |
| 20260502181553 | 63 | 248 | 33.0 | 33.0 | 0.06 | 9.99 | 0.00 | 51 | 1007.9 |
| 20260502180554 | 63 | 248 | 0.0 | 0.0 | 0.06 | 9.99 | 0.00 | 50 | 1007.9 |
| 20260502164054 | 72 | 359 | 0.0 | 0.0 | 0.16 | 9.99 | 0.00 | 39 | 1007.9 |
| 20260502163555 | 72 | 359 | 0.0 | 0.0 | 0.20 | 9.99 | 0.00 | 39 | 1007.8 |
| 20260502163054 | 72 | 248 | 40.0 | 40.0 | 0.22 | 9.99 | 0.00 | 39 | 1007.9 |
| 20260502162554 | 72 | 248 | 43.0 | 43.0 | 0.24 | 9.99 | 0.00 | 38 | 1007.9 |
| 20260502162058 | 72 | 248 | 43.0 | 43.0 | 0.24 | 9.99 | 0.00 | 38 | 1008.0 |
| 20260502161555 | 72 | 248 | 0.0 | 0.0 | 0.22 | 9.99 | 0.00 | 39 | 1008.0 |
| 20260502160554 | 73 | 248 | 0.0 | 0.0 | 0.16 | 9.99 | 0.00 | 39 | 1008.4 |
| 20260502152135 | 74 | 248 | 0.0 | 0.0 | 0.00 | 9.99 | 0.00 | 38 | 1008.6 |
| 20260502152055 | 74 | 248 | 0.0 | 0.0 | 0.00 | 9.99 | 0.00 | 38 | 1008.6 |
| 20260502151554 | 73 | 248 | 0.0 | 0.0 | 0.00 | 9.99 | 0.00 | 38 | 1008.8 |
| 20260502151054 | 73 | 248 | 44.0 | 44.0 | 0.02 | 9.99 | 0.00 | 39 | 1008.7 |
| 20260502150554 | 73 | 248 | 44.0 | 44.0 | 0.02 | 9.99 | 0.00 | 39 | 1008.7 |
| 20260502123555 | 74 | 248 | 0.0 | 0.0 | 9.99 | 9.99 | 0.00 | 40 | 1010.2 |
| 20260502121554 | 73 | 359 | 0.0 | 0.0 | 9.99 | 9.99 | 0.00 | 41 | 1007.8 |
| 20260502121055 | 73 | 248 | 0.0 | 0.0 | 9.99 | 9.99 | 0.00 | 41 | 1009.1 |
| 20260502120555 | 73 | 248 | 0.0 | 0.0 | 9.99 | 9.99 | 0.00 | 40 | 1009.0 |
| 20260502115557 | 73 | 248 | 0.0 | 0.0 | 5.20 | 9.99 | 0.00 | 41 | 1010.6 |
| 20260502115055 | 73 | 248 | 0.0 | 0.0 | 5.20 | 9.99 | 0.00 | 42 | 1010.6 |
| 20260502114555 | 72 | 248 | 0.0 | 0.0 | 5.20 | 9.99 | 0.00 | 41 | 1010.9 |
| 20260502114055 | 73 | 248 | 0.0 | 0.0 | 5.20 | 9.99 | 0.00 | 41 | 1010.8 |
| 20260502113057 | 73 | 248 | 0.0 | 0.0 | 5.20 | 9.99 | 0.00 | 42 | 1011.0 |
| 20260502112557 | 73 | 248 | 0.0 | 0.0 | 5.20 | 9.99 | 0.00 | 43 | 1011.1 |
| 20260502112055 | 73 | 338 | 0.0 | 0.0 | 0.00 | 9.99 | 0.00 | 43 | 1011.2 |
| 20260502111555 | 73 | 338 | 0.0 | 0.0 | 9.99 | 9.99 | 0.00 | 42 | 1011.2 |
| 20260502111055 | 72 | 338 | 0.0 | 0.0 | 9.99 | 9.99 | 0.00 | 42 | 1011.3 |
| 20260502110555 | 72 | 338 | 0.0 | 0.0 | 9.99 | 9.99 | 0.00 | 42 | 1011.4 |
| 20260502110056 | 72 | 338 | 0.0 | 0.0 | 9.99 | 9.99 | 0.00 | 43 | 1011.5 |
| 20260502105556 | 72 | 338 | 0.0 | 0.0 | 9.99 | 9.99 | 0.00 | 42 | 1011.4 |
| 20260502104055 | 72 | 248 | 0.0 | 0.0 | 9.99 | 9.99 | 0.00 | 43 | 1011.9 |
| 20260502103558 | 72 | 248 | 0.0 | 0.0 | 9.99 | 9.99 | 0.00 | 43 | 1012.0 |
| 20260502103055 | 72 | 248 | 0.0 | 0.0 | 9.99 | 9.99 | 0.00 | 43 | 1011.9 |
| 20260502102556 | 72 | 248 | 0.0 | 0.0 | 9.99 | 9.99 | 0.00 | 44 | 1012.1 |
| 20260502101555 | 71 | 248 | 0.0 | 0.0 | 9.99 | 9.99 | 0.00 | 44 | 1010.9 |
| 20260502100556 | 71 | 270 | 0.0 | 0.0 | 9.99 | 9.99 | 0.00 | 47 | 1012.4 |
| 20260502091056 | 68 | 248 | 0.0 | 0.0 | 0.00 | 9.99 | 0.00 | 53 | 1013.3 |
| 20260502090557 | 68 | 248 | 0.0 | 0.0 | 0.00 | 9.99 | 0.00 | 54 | 1013.4 |
| 20260502090134 | 67 | 248 | 0.0 | 0.0 | 0.00 | 9.99 | 0.00 | 54 | 1013.5 |
| 20260502071055 | 60 | 248 | 0.0 | 0.0 | 0.00 | 9.99 | 0.00 | 61 | 1014.6 |
| 20260502070556 | 60 | 248 | 0.0 | 0.0 | 0.00 | 9.99 | 0.00 | 61 | 1014.7 |
| 20260502070059 | 60 | 248 | 0.0 | 0.0 | 0.65 | 9.99 | 0.00 | 61 | 1014.7 |
| 20260502065556 | 60 | 270 | 0.0 | 0.0 | 0.65 | 9.99 | 0.00 | 61 | 1014.9 |
| 20260502064556 | 60 | 270 | 0.0 | 0.0 | 0.65 | 9.99 | 0.00 | 62 | 1014.8 |
| 20260502064056 | 60 | 270 | 0.0 | 0.0 | 0.65 | 9.99 | 0.00 | 62 | 1014.9 |
| 20260502063555 | 60 | 248 | 0.0 | 0.0 | 0.65 | 9.99 | 0.00 | 63 | 1015.0 |
| 20260502063057 | 60 | 248 | 0.0 | 0.0 | 0.65 | 9.99 | 0.00 | 63 | 1015.1 |
| 20260502061557 | 59 | 248 | 0.0 | 0.0 | 0.65 | 9.99 | 0.00 | 65 | 1015.0 |
| 20260502061056 | 59 | 248 | 0.0 | 0.0 | 0.65 | 9.99 | 0.00 | 65 | 1015.1 |
| 20260502060559 | 59 | 248 | 0.0 | 0.0 | 0.65 | 9.99 | 0.00 | 66 | 1015.2 |
| 20260502034557 | 39 | 248 | 0.0 | 0.0 | 0.00 | 9.99 | 0.00 | 80 | 1015.1 |
| 20260502034055 | 39 | 248 | 0.0 | 0.0 | 0.00 | 9.99 | 0.00 | 80 | 1015.1 |
| 20260502033557 | 39 | 248 | 0.0 | 0.0 | 0.00 | 9.99 | 0.00 | 80 | 1015.1 |
| 20260502030556 | 40 | 248 | 0.0 | 0.0 | 0.00 | 9.99 | 0.00 | 79 | 1015.1 |
| 20260502030056 | 40 | 248 | 0.0 | 0.0 | 0.00 | 9.99 | 0.00 | 79 | 1015.0 |
| 20260502025556 | 40 | 248 | 0.0 | 0.0 | 0.00 | 9.99 | 0.00 | 79 | 1015.2 |
| 20260502024556 | 40 | 248 | 0.0 | 0.0 | 0.00 | 9.99 | 0.00 | 79 | 1015.1 |
| 20260502024056 | 40 | 248 | 0.0 | 0.0 | 0.00 | 9.99 | 0.00 | 78 | 1015.1 |
| 20260502023556 | 40 | 248 | 0.0 | 0.0 | 0.00 | 9.99 | 0.00 | 78 | 1015.1 |
| 20260502023056 | 40 | 248 | 0.0 | 0.0 | 0.00 | 9.99 | 0.00 | 78 | 1015.2 |
| 20260502022557 | 40 | 248 | 0.0 | 0.0 | 0.00 | 9.99 | 0.00 | 78 | 1015.2 |
| 20260502022056 | 40 | 248 | 0.0 | 0.0 | 0.00 | 9.99 | 0.00 | 78 | 1015.2 |
| 20260502021556 | 40 | 248 | 0.0 | 0.0 | 0.00 | 9.99 | 0.00 | 78 | 1015.1 |
| 20260502020058 | 41 | 248 | 0.0 | 0.0 | 0.00 | 9.99 | 0.00 | 77 | 1015.2 |
| 20260502015556 | 41 | 248 | 0.0 | 0.0 | 0.00 | 9.99 | 0.00 | 77 | 1015.0 |
| 20260502014056 | 41 | 248 | 0.0 | 0.0 | 0.00 | 9.99 | 0.00 | 77 | 1015.2 |
| 20260502013556 | 41 | 248 | 0.0 | 0.0 | 0.00 | 9.99 | 0.00 | 77 | 1015.0 |
| 20260502012556 | 41 | 248 | 0.0 | 0.0 | 0.00 | 9.99 | 0.00 | 76 | 1015.2 |
| 20260502011556 | 42 | 248 | 0.0 | 0.0 | 0.00 | 9.99 | 0.00 | 75 | 1015.3 |
| 20260502011056 | 42 | 359 | 0.0 | 0.0 | 0.00 | 9.99 | 0.00 | 75 | 1015.2 |
| 20260502010556 | 42 | 359 | 0.0 | 0.0 | 0.00 | 9.99 | 0.00 | 75 | 1015.1 |
| 20260502010056 | 42 | 248 | 0.0 | 0.0 | 0.00 | 9.99 | 0.00 | 75 | 1015.1 |
| 20260502005556 | 42 | 248 | 0.0 | 0.0 | 0.00 | 9.99 | 0.00 | 74 | 1015.2 |
| 20260502004556 | 42 | 248 | 0.0 | 0.0 | 0.00 | 9.99 | 0.00 | 74 | 1015.4 |
| 20260502004056 | 42 | 248 | 0.0 | 0.0 | 0.00 | 9.99 | 0.00 | 73 | 1015.4 |
| 20260502003556 | 42 | 248 | 0.0 | 0.0 | 0.00 | 9.99 | 0.00 | 73 | 1015.4 |
| 20260502003056 | 43 | 248 | 0.0 | 0.0 | 0.00 | 9.99 | 0.00 | 73 | 1015.5 |
| 20260502002557 | 43 | 248 | 0.0 | 0.0 | 0.00 | 9.99 | 0.00 | 73 | 1015.4 |
| 20260502001556 | 43 | 248 | 0.0 | 0.0 | 0.00 | 9.99 | 0.00 | 72 | 1015.6 |
| 20260502001056 | 43 | 248 | 0.0 | 0.0 | 0.00 | 9.99 | 0.00 | 72 | 1015.6 |
| 20260502000556 | 43 | 248 | 0.0 | 0.0 | 0.00 | 9.99 | 0.00 | 72 | 1015.6 |
| 20260502000056 | 43 | 248 | 0.0 | 0.0 | 0.00 | 9.99 | 0.00 | 72 | 1015.5 |
| 20260501235556 | 43 | 248 | 0.0 | 0.0 | 0.00 | 9.99 | 0.00 | 72 | 1015.6 |
| 20260501235056 | 43 | 248 | 0.0 | 0.0 | 0.00 | 9.99 | 0.00 | 71 | 1015.6 |
| 20260501234556 | 44 | 248 | 0.0 | 0.0 | 0.00 | 9.99 | 0.00 | 71 | 1015.6 |
| 20260501234056 | 44 | 248 | 0.0 | 0.0 | 0.00 | 9.99 | 0.00 | 71 | 1015.6 |
| 20260501233559 | 44 | 270 | 0.0 | 0.0 | 0.00 | 9.99 | 0.00 | 70 | 1015.6 |
| 20260501233057 | 44 | 270 | 0.0 | 0.0 | 0.00 | 9.99 | 0.00 | 70 | 1015.6 |
| 20260501232557 | 44 | 270 | 0.0 | 0.0 | 0.00 | 9.99 | 0.00 | 70 | 1015.5 |
| 20260501232056 | 44 | 270 | 0.0 | 0.0 | 0.00 | 9.99 | 0.00 | 70 | 1015.7 |